INTELSAT 19 (IS-19) (38356 NORAD) Tracking and Keplerian Element Data

This shows tracking and keplerian element data for the satellite.

Feedback or suggestion? Click here.




ElementValue
Catalog38356
NameINTELSAT 19 (IS-19)
Epoch Orbit2877
Epoch Day91.94285567
Epoch Year2020
RAAN169.8966
Inclination0.0177
Eccentricity0.000295
Argument of Perigee205.7543
Mean Anonmoly319.535
Mean Motion1.00272112
Decay Rate-6E-07
L11 38356U 12030A 20091.94285567 -.00000060 00000-0 00000+0 0 9995
L22 38356 0.0177 169.8966 0002950 205.7543 319.5350 1.00272112 28775

Live tracking and technical data element details for INTELSAT 19 (IS-19) (NORAD 38356). INTELSAT 19 (IS-19) can be tracked NOW for your location showing map with azimuth and elevation plus other details from your city location.

Track the satellite on the map from your city or location and see movement details for azimuth, elevation, latitude, longitude, range, height, and movement on the map or in text.







IsCatalogInMostPopularTable: catalog: 38356, numindb: 345
Update: records affected: 1



GetName: 38356 INTELSAT 19 (IS-19)

Hit Count: updated at: Fri, 03 Apr 2020 07:01:41 GMT